TIANMU-1 16

Last updated on Sun Apr 12 2026 00:02:27 GMT+0000 (Coordinated Universal Time)

1 58701U 24004B 26101.55361853 .00004877 00000+0 19045-3 0 9994 2 58701 97.4627 287.0609 0004611 213.2000 146.8950 15.26361469125611
UTC large
Height (km)
Speed (km/s)
/
Latitude / Longitude
Inclination (degrees)
Orbital Period (minutes)
Azimuth
Elevation
Range (km)
Doppler Factor

Next 0 passes for location: London (51.5072 / 0.1276)

Sorry there are no passes over London.
TIANMU-1 16